{"data":{"norad_id":32953,"epoch":"2026-05-25T03:53:35.642976Z","epoch_age_seconds":67921,"freshness":"FRESH","line1":"1 32953U 08025A   26145.16221809  .00000024  00000+0  10473-3 0  9997","line2":"2 32953  82.5058   9.7638 0019844   4.7168 355.4095 12.43178323816838","mean_motion":12.43178323,"eccentricity":0.0019844,"inclination_deg":82.5058,"raan_deg":9.7638,"arg_perigee_deg":4.7168,"mean_anomaly_deg":355.4095,"bstar":0.00010473,"rev_number":81683,"period_min":115.83213553185,"perigee_km":1477.5387978798,"apogee_km":1508.7783958446,"semimajor_km":7871.2955968622,"source":"CELESTRAK","updated_at":"2026-05-25T13:38:23.282920Z"}}